www.pogodaiklimat.ru

Погода и климат >> Архив погоды >> Кот-д'Ивуар >> Далоа


ПОГОДА в Далоа

  • Прогноз погоды в Далоа
  • Монитор погоды в Далоа

АРХИВ ПОГОДЫ в Далоа

Время (UTC), дата Ветер
(напр.,м/с)
 
Видим.   Явления Облачность Т
(С)
Тd
(С)
f
(%)
Тe
(С)
Тes
(С)
Комфортность P
(гПа)
Po
(гПа)
Тmin
(С)
Tmax
(С)
R
(мм)
R24
(мм)
S
(см)
15 16.07 0 10 км 9/9 400 м
[Cu med, cong]
+27.5 +23.2 77 1010.9 980.2
18 16.07 0 10 км 10/10 400 м
[Cu med, cong]
+25.5 +22.5 83 1011.2 980.3 +29.0
21 16.07 0 10 км 10/10 400 м
[Sc]
+24.8 +23.6 93 1013.4 984.4
00 17.07 0 10 км 10/10 400 м
[Sc]
+24.0 +23.3 96 1014.3 983.2
03 17.07 0 8000 м 10/10 400 м
[Sc]
+23.3 +22.9 98 1013.2 982.0
06 17.07 0 8000 м 10/10 400 м
[Sc]
+23.0 +23.0 100 1014.3 983.1 +21.8
09 17.07 0 10 км 9/9 400 м
[Sc]
+24.4 +22.9 91 1015.8 984.7
12 17.07 0 10 км 9/9 400 м
[Cu med, cong]
+27.8 +23.5 77 1014.9 984.1
15 17.07 0 10 км 6/6 450 м
[Cu med, cong Ac trans]
+30.4 +23.4 66 1011.6 981.2
18 17.07 0 10 км 4/3 450 м
[Cu med, cong Ac trans]
+28.1 +24.0 78 1011.3 980.7 +31.0
21 17.07 0 10 км 6/3 400 м
[Cb cap Ac trans]
+25.4 +23.4 89 1013.6 982.6
00 18.07 0 10 км 6/6 400 м
[Sc]
+23.8 +23.2 96 1014.2 983.1
03 18.07 0 10 км 9/9 400 м
[Sc]
+23.0 +22.3 96 1013.5 982.3
06 18.07 0 8000 м 6/3 400 м
[Sc Ci sp]
+22.0 +22.0 100 1013.9 982.6 +21.8
09 18.07 0 10 км 9/8 400 м
[Sc Ac trans]
+23.7 +22.2 91 1014.8 983.6
12 18.07 0 10 км 8/8 400 м
[Cu med, cong Ac trans]
+28.2 +23.6 76 1013.1 982.4
15 18.07 0 10 км 8/8 450 м
[Cu med, cong]
+30.0 +23.6 69 1011.2 980.8
18 18.07 0 10 км 5/5 450 м
[Cu med, cong]
+29.5 +23.1 69 1010.6 980.1 +32.0
21 18.07 0 10 км 4/0
[Ac trans]
+26.5 +23.6 84 1013.0 982.2
00 19.07 0 10 км 3/1 400 м
[Sc Ac trans]
+25.0 +23.6 92 1013.4 982.4
03 19.07 0 10 км 10/10 400 м
[Sc]
+24.0 +22.8 93 1013.0 981.9
06 19.07 0 10 км 10/10 400 м
[Sc]
+23.5 +22.8 96 1012.9 981.8 +21.2
09 19.07 0 10 км {дождь} 9/9 400 м
[Sc]
+24.0 +23.3 96 1014.7 983.6
12 19.07 0 10 км {дождь} 10/10 400 м
[Cu med, cong]
+26.5 +22.9 81 1014.5 983.6 0.0
15 19.07 0 10 км 6/6 400 м
[Cu med, cong]
+29.0 +23.3 71 1011.5 981.0
18 19.07 0 10 км 5/5 400 м
[Cu med, cong]
+28.0 +23.4 76 1010.5 979.9 +30.6
21 19.07 0 10 км 5/5 400 м
[Sc]
+25.5 +23.3 88 1012.7 981.8
00 20.07 0 10 км 9/0
[Ac As]
+24.0 +22.8 93 1014.3 983.2
03 20.07 0 8000 м 10/10 400 м
[Sc]
+23.5 +22.8 96 1013.0 981.9
06 20.07 0 8000 м 9/9 400 м
[Sc]
+23.5 +22.8 96 1013.9 982.7 +21.5
09 20.07 0 8000 м 10/10 400 м
[Sc]
+24.3 +22.4 89 1015.4 984.3
12 20.07 0 10 км 9/9 400 м
[Cu med, cong]
+27.5 +23.2 77 1014.4 983.6
15 20.07 0 10 км 9/5 450 м
[Cu med, cong Ac trans]
+28.7 +22.2 68 1011.9 981.3
18 20.07 0 10 км 6/3 450 м
[Cu med, cong Ac trans]
+27.0 +21.4 71 1011.6 980.8 +30.2
21 20.07 0 10 км ясно +24.0 +21.8 88 1013.8 982.7
00 21.07 0 10 км 3/3 400 м
[Sc]
+23.5 +22.0 91 1014.8 983.6
03 21.07 0 10 км 5/0
[Ac trans]
+23.0 +22.3 96 1013.2 982.0
06 21.07 0 10 км 9/0
[Ac trans]
+22.5 +21.8 96 1013.3 982.0 +22.5
09 21.07 0 10 км 8/5 400 м
[Cu med, cong Ci sp]
+25.0 +22.1 84 1014.6 983.5
12 21.07 0 10 км 9/9 450 м
[Cu med, cong]
+28.7 +22.6 70 1013.1 982.5
15 21.07 0 10 км 8/8 400 м
[Cu med, cong]
+19.5 +22.3 100 1010.2 979.7
18 21.07 0 10 км 8/3 400 м
[Cu med, cong Ac trans]
+29.0 +22.5 68 1009.4 978.9 +31.7
21 21.07 0 10 км 5/5 400 м
[Sc]
+26.3 +22.7 81 1011.1 980.3
03 22.07 0 8000 м {гроза, дождь} 10/10 400 м
[Sc]
+23.0 +23.0 100 1011.8 980.6
06 22.07 0 8000 м в посл. час морось {гроза, дождь} 10/5 150 м
[Sc]
+23.0 +23.0 100 1012.3 981.1 +23.0 63
09 22.07 0 10 км 10/10 400 м
[Sc]
+23.5 +22.8 96 1013.9 982.5
12 22.07 0 10 км 9/9 400 м
[Cu med, cong]
+28.5 +23.5 74 1012.1 981.5
15 22.07 0 10 км 8/8 450 м
[Cu med, cong]
+30.4 +23.9 68 1010.0 979.7
18 22.07 0 10 км 8/8 400 м
[Cu med, cong]
+29.0 +23.3 71 1009.5 979.0 +31.0
21 22.07 0 10 км зарница {гроза} 8/8 400 м
[Cb cap]
+25.0 +23.6 92 1011.9 981.0
00 23.07 0 10 км {гроза} 9/9 400 м
[Sc]
+23.5 +22.8 96 1013.1 982.0
03 23.07 0 10 км 9/9 400 м
[Sc]
+23.5 +22.8 96 1012.1 981.0
06 23.07 0 10 км 9/9 400 м
[Sc]
+22.8 +22.8 100 1012.8 981.6 +22.8
09 23.07 0 10 км 9/9 400 м
[Sc]
+24.0 +23.0 94 1013.8 982.7
12 23.07 0 10 км {морось} 9/9 400 м
[Cu med, cong]
+26.0 +23.4 86 1013.4 982.6 0.0

 

Местоположение метеостанции Далоа (Кот-д'Ивуар): широта 6.87 долгота -6.47 высота над уровнем моря 277 м.

В архиве по умолчанию представлена погода в Далоа за последнюю неделю. Архивные данные за месяц целиком и за предыдущие месяцы, начиная с января 2011 года, Вы можете получить, выбрав интересующий диапазон дат из раскрывающегося списка и нажав кнопку "Ввод!".


*Определитесь, кто Вы:
робот инопланетянин человек

Внимание! Время в таблицах - всемирное. Для получения местного времени необходимо прибавить поправку, которая равна 0 ч.

Смотрите также архив погоды в соседних городах и на ближайших метеорологических станциях:

Погода в Ганьоа (Кот-д'Ивуар) (100 км)
Погода в Ямусукро (Кот-д'Ивуар) (124 км)
Погода в Мане (Кот-д'Ивуар) (129 км)
Погода в Буаке (Кот-д'Ивуар) (181 км)
Погода в Димбокро (Кот-д'Ивуар) (197 км)
Погода в Сассандре (Кот-д'Ивуар) (218 км)
Погода в Сан-Педро (Кот-д'Ивуар) (237 км)
Погода в Табу (Кот-д'Ивуар) (290 км)
Погода в Корого (Кот-д'Ивуар) (299 км)
Погода в Одиенне (Кот-д'Ивуар) (320 км)

Пояснения к столбцам:

Ветер - указаны скорость ветра в м/с - средняя за 10 мин, порывы в срок и между сроками (в фигурных скобках) и направление, откуда дует ветер: С - северный, СВ - северо-восточный, В - восточный, ЮВ - юго-восточный, Ю - южный, ЮЗ - юго-западный, З - западный, СЗ - северо-западный.
Видимость - горизонтальная дальность видимости в метрах или километрах. При видимости от 1 до 10 км при отсутствии осадков обычно наблюдается дымка, при ухудшении видимости до 1 км и менее - туман. В сухую погоду видимость может ухудшаться дымом, пылью или мглою.
Явления - указаны атмосферные явления, наблюдавшиеся в срок или в последний час перед сроком; фигурными скобками обозначены явления, наблюдавшиеся между сроками (за 1-3 часа до срока); квадратными скобками обозначены град или гололедные отложения с указанием их диаметра в мм.
Облачность - указаны через наклонную черту общая и нижняя облачность в баллах и высота нижней границы облаков в метрах; квадратными скобками обозначены формы облаков: Ci - перистые, Cs - перисто-слоистые, Cc - перисто-кучевые, Ac - высококучевые, As - высокослоистые, Sc - слоисто-кучевые, Ns - слоисто-дождевые, Cu - кучевые, Cb - кучево-дождевые. Подробнее классификацию облаков см. в Атласе облаков (PDF).
T - Температура воздуха - температура, измеренная на высоте 2 м над землей.
Td - Температура точки росы - температура, при понижении до которой содержащийся в воздухе водяной пар достигнет насыщения.
f - Относительная влажность воздуха - влажноcть воздуха, измеренная на высоте 2 м над землей.
Te - Эффективная температура - температура, которую ощущает одетый по сезону человек в тени. Характеристика душности погоды. При расчете учитывается влияние влажности воздуха и скорости ветра на теплоощущения человека.
Tes - Эффективная температура на солнце - температура, которую ощущает человек, с поправкой на солнечный нагрев. Характеристика знойности погоды. Зависит от высоты солнца над горизонтом, облачности и скорости ветра. Ночью, в пасмурную погоду, а также при ветре 12 м/с и более поправка равна нулю.
P - Атмосферное давление - приведенное к уровню моря атмосферное давление.
Po - Атмосферное давление - измеренное на уровне метеостанции атмосферное давление.
Tmin - Минимальная температура - минимум температуры воздуха на высоте 2 м над землей.
Tmax - Максимальная температура - максимум температуры воздуха на высоте 2 м над землей.
R - Количество осадков - Количество выпавших осадков за период времени, мм. При наведении курсора мыши на число - период времени, за который выпало указанное количество осадков.
R24 - Количество осадков - Количество выпавших осадков за 24 часа, мм.
S - Снежный покров - Высота снежного покрова, см. При наведении курсора мыши на число - состояние снежного покрова и степень покрытия местности в баллах.